Location: Madrid
(40.4167°N, 3.7036°W)
Time: 03:01:30
(UTC+00:00)

ISS - Pass Details

Date: 08 May 2026
Orbit: 414 x 424 km, 51.6° (Epoch: 15 May)

Event Time Altitude Azimuth Distance (km) Brightness Sun altitude
Rises 20:23:59 0° 219° (SW) 2,335 0.1 -11.8°
Reaches altitude 10° 20:26:06 10° 214° (SSW) 1,477 -1.0 -12.2°
Maximum altitude 20:29:18 48° 139° (SE) 547 -3.6 -12.7°
Drops below altitude 10° 20:32:32 10° 63° (ENE) 1,487 -1.2 -13.2°
Sets 20:34:40 0° 58° (ENE) 2,354 -0.2 -13.5°
